CZ-6A DEB

Satellite information

Favourite Embed

Satellite Type and Status

DEBRISIN ORBIT

Key statistics

Satellite CZ-6A DEB at a glance.

Uptime

1076

Days in orbit

Revolutions

≈ 13.9

Per day

Orbit

SSO

Sun Synchronous Orbit

Inclination

98.9

Latest

Satellite identification and parameters

Extended collection of information and parameters for CZ-6A DEB.

Object identification

Identified? True

Debris? True

Object name: CZ-6A DEB

International designator: 2022-151HA

Object number (NORAD): 54474

Object ID (CCSDS): 54474

Country: PEOPLES REPUBLIC OF CHINA (PRC)

Current information (Y/N): Y

RCS size: SMALL

Orbital parameters

Period: 103.552 minutes

Inclination: 98.8981 deg

SMA: 7304.649 km

Apoapsis: 1029.495 km

Periapsis: 823.533 km

RAAN: 262.4591 deg

Eccentricy: 0.014098

Argument of periapsis: 31.6773 deg

Mean anomaly: 329.2775 deg

Mean motion: 13.90604739 rev/day

Mean motion (dot): 0.00001559 rev/day2

B* drag term: 0.0011856 1/REarth

Two-line elements (TLE)

Creation date: Oct. 22, 2025, 12:06 a.m.

Reference frame: TEME

Reference center: EARTH

Epoch: Oct. 21, 2025, 8:52 p.m. UTC

TLE line 0: 0 CZ-6A DEB

TLE line 1: 1 54474U 22151HA 25294.86984279 .00001559 00000-0 11856-2 0 9993

TLE line 2: 2 54474 98.8981 262.4591 0140980 31.6773 329.2775 13.90604739148995

Live tracking on map

Real-time ground track for satellite CZ-6A DEB.

In-orbit conjunctions

A list of the most updated potential collisions computed for object CZ-6A DEB.

Target Orbit TCA Probability of collision Miss distance Type
COSMOS 2251 DEB LEO 2025-10-01 13:21:40 0.0009826852 22.0 (m) DEBRIS
COSMOS 1027 LEO 2024-06-02 06:28:21 0.0008079276 146.0 (m) PAYLOAD

Associated space launch

Chinese satellite reported for atmospheric/ocean/environmental/spatial parameter research purposes, details TBD.

CZ-6A DEB was lifted into orbit during the mission ‘Long March 6A | Yunhai 3’, on board a Long March 6A space rocket.

The launch took place on Nov. 11, 2022, 10:52 p.m. from Launch Complex 9A.

For more information about the launch, click the button.

Launch to space Long March 6A | Yunhai 3
Long March 6A | Yunhai 3

Agency: N/A

Status: Launch Successful

Launch date: Nov. 11, 2022, 10:52 p.m. UTC

Rocket: Long March 6A

Launch pad: Launch Complex 9A

Location: Taiyuan Satellite Launch Center, People's Republic of China

...

Latest news about this satellite

There are no fresh news available about this satellite. Check back as we update our databases every day.


Newsletter sign-up

Weekly statistics, charts and insights to help you stay on top of the space industry.